www.pogodaiklimat.ru

ПОГОДА в Чикаше, OK

  • Прогноз погоды в Чикаше
  • Монитор погоды в Чикаше
  • Климат в Чикаше

АРХИВ ПОГОДЫ в Чикаше

Время (UTC), дата Ветер
(напр.,м/с)
 
Видим.   Явления Облачность Т
(С)
Тd
(С)
f
(%)
Тe
(С)
Тes
(С)
Комфортность

P
(гПа)

Po
(гПа)
Тmin
(С)
Tmax
(С)
R
(мм)
SD
(см)
05:35 19.06 З  8 км  гроза с сильным дождем, дымка  10/10 210 м  +17.9  +17.2  96  +17  +17               
05:55 19.06 СЗ  16 км  гроза с дождем  10/5 1410 м
[средняя] 
+18.0  +17.3  96  +18  +18               
06:15 19.06 С  11 км  гроза с дождем  10/0 2250 м
[средняя] 
+18.1  +17.5  96  +18  +18               
06:35 19.06   11 км  дымка  10/0 2100 м
[средняя] 
+18.1  +17.5  96  +18  +18      969.7         
06:55 19.06 СВ  16 км  слабый дождь  8/0 3000 м
[средняя] 
+18.3  +17.6  96  +19  +19      968.0         
07:15 19.06 СВ  16 км    5/0 3600 м
[средняя] 
+18.0  +17.3  96  +18  +18      966.4         
07:35 19.06   16 км    ясно  +17.9  +17.1  95  +18  +18      966.7         
07:55 19.06 Ю  16 км    ясно  +17.6  +17.0  96  +18  +18      966.7      14.5   
08:15 19.06 Ю  16 км    ясно  +17.6  +17.1  97  +17  +17      966.7         
08:35 19.06 З  16 км    ясно  +17.7  +17.1  96  +18  +18      967.1         
08:55 19.06 З  16 км    ясно  +17.5  +17.0  97  +17  +17      967.1         
09:15 19.06 З  16 км    ясно  +17.4  +17.0  97  +17  +17      967.1         
09:35 19.06 ЮЗ  16 км    ясно  +17.6  +17.2  98  +18  +18      966.4         
09:55 19.06   16 км    ясно  +17.4  +17.0  97  +17  +17      966.1         
10:15 19.06 ЮЗ  16 км    ясно  +17.2  +16.8  97  +18  +18      966.1         
10:35 19.06 Ю  16 км    ясно  +17.4  +16.9  97  +18  +18      966.1         
10:55 19.06 Ю  16 км    ясно  +17.5  +17.0  97  +18  +18      966.4  +17.2  +24.3  14.5   
11:15 19.06 С  16 км    ясно  +18.2  +17.6  96  +19  +19      967.1         
11:35 19.06 СЗ  16 км    5/5 150 м  +18.5  +17.8  96  +20  +20      967.4         
11:55 19.06 СЗ  16 км    8/8 150 м  +19.0  +18.3  96  +21  +21  комфорт    968.0         
12:15 19.06 З  16 км    5/5 150 м  +19.6  +18.7  95  +22  +23  комфорт    968.4         
12:35 19.06 З  16 км    ясно  +20.3  +18.4  89  +24  +25  комфорт    968.7         
12:55 19.06 ЮЗ  16 км    ясно  +21.4  +18.8  85  +26  +27  душно    968.7         
13:15 19.06 ЮЗ  16 км    ясно  +21.7  +18.2  80  +26  +30  душно    969.0         
13:35 19.06 З  16 км    ясно  +22.3  +18.7  80  +28  +31  душно    968.7         
13:55 19.06 З  16 км    8/8 450 м
[средняя] 
+22.8  +18.6  77  +29  +29  очень
душно 
  968.7         
14:15 19.06 ЮЗ  16 км    10/5 450 м
[средняя] 
+22.8  +18.3  76  +28  +30  душно    968.4         
14:35 19.06 ЮЗ  16 км    10/0 2250 м
[средняя] 
+23.2  +18.2  73  +29  +31  душно    968.4         
14:55 19.06 З  16 км    10/0 2250 м
[средняя] 
+23.4  +18.6  74  +30  +32  очень
душно 
  968.4         
15:15 19.06 З  16 км    10/0 2250 м
[средняя] 
+24.3  +18.5  70  +29  +33  душно    968.4         
15:30 19.06 З  16 км    10/0 2250 м
[средняя] 
+24.6  +17.5  65  +29  +33  душно    968.4         
15:55 19.06 ЮЗ  16 км    10/0 2250 м
[средняя] 
+24.9  +18.4  67  +29  +33  душно    968.4         
16:15 19.06 З  16 км    10/0 2250 м
[средняя] 
+25.1  +18.4  66  +30  +35  душно    968.4         
16:35 19.06 З  16 км    10/0 2250 м
[средняя] 
+25.4  +18.9  67  +30  +35  душно    968.4         
16:55 19.06   16 км    10/0 2250 м
[средняя] 
+25.4  +18.4  65  +30  +38  душно    968.0  +17.5  +25.7     
17:15 19.06   16 км    5/0 2250 м
[средняя] 
+25.7  +18.5  64  +30  +49  душно    967.7         
17:35 19.06 ЮЗ  16 км    ясно  +26.2  +18.5  63  +31  +50  очень
душно 
  967.4         
17:55 19.06   16 км    ясно  +26.8  +19.0  62  +32  +60  опасность
солнечного
удара 
  967.1         
18:15 19.06   16 км    ясно  +27.0  +19.1  62  +32  +61  опасность
солнечного
удара 
  966.4         
18:35 19.06 З  16 км    ясно  +27.6  +19.0  59  +33  +52  опасность
солнечного
удара 
  966.4         
18:55 19.06   11 км    ясно  +28.2  +19.5  59  +34  +62  опасность
солнечного
удара 
  966.1         
19:15 19.06   16 км    ясно  +28.5  +19.1  57  +34  +60  опасность
солнечного
удара 
  965.8         
19:35 19.06   16 км    ясно  +29.4  +19.2  54  +35  +61  опасность
солнечного
удара 
  965.8         
19:55 19.06 З  16 км    ясно  +29.7  +18.9  52  +35  +49  очень
душно 
  965.8         
20:15 19.06 З  16 км    ясно  +29.5  +18.8  53  +35  +51  опасность
солнечного
удара 
  965.8         
20:35 19.06 ЮЗ  16 км    ясно  +29.9  +19.2  53  +36  +49  очень
душно 
  965.8         
20:55 19.06 ЮЗ  16 км    5/5 1410 м  +30.2  +19.1  51  +36  +41  очень
душно 
  965.4         
21:15 19.06 Ю  16 км    ясно  +30.4  +19.5  52  +36  +46  очень
душно 
  965.1         

 

Местоположение метеостанции Chickasha Municipal Airport: широта 35.0961 долгота -97.9661 высота над уровнем моря 351 м.

В архиве по умолчанию представлена погода в Чикаше за последние 1-2 суток. Обновление информации о фактической погоде в базе происходит ежечасно! Архивные данные за месяц целиком и за предыдущие месяцы Вы можете получить, выбрав интересующий диапазон дат из раскрывающегося списка и нажав кнопку "Ввод!".

Внимание! Архив погоды МЕТАР в базе сайта хранится не более 60 дней. Нет смысла пытаться выбрать более раннюю дату.

Внимание! Время в таблицах - всемирное. Для получения местного времени необходимо прибавить поправку, которая в Чикаше равна -6 ч.

Ветер - указаны скорость ветра в м/с и направление, откуда дует ветер: С - северный, СВ - северо-восточный, В - восточный, ЮВ - юго-восточный, Ю - южный, ЮЗ - юго-западный, З - западный, СЗ - северо-западный.
Видимость - горизонтальная дальность видимости в метрах или километрах. При видимости от 1 до 10 км при отсутствии осадков обычно наблюдается дымка, при ухудшении видимости до 1 км и менее - туман. В сухую погоду видимость может ухудшаться дымом, пылью или мглою.
Атмосферные явления - указаны явления, наблюдавшиеся в указанный момент времени.
Облачность - указаны через наклонную черту верхняя и нижняя облачность в баллах и высота нижней границы облаков в метрах. Внимание: облачность, как и прочие метеорологические величины в США измеряются автоматическими метеостанциями. Указанные значения в баллах носят условный характер и показывают процент времени, в течение которого, в среднем, лазерный луч высотомера отражался от облаков обратно.
T - Температура воздуха - температура, измеренная на высоте 2 м над землей.
Td - Температура точки росы - температура, при понижении до которой содержащийся в воздухе водяной пар достигнет насыщения.
f - Относительная влажность воздуха - влажноcть воздуха, измеренная на высоте 2 м над землей.
Te - Эффективная температура - температура, которую ощущает одетый по сезону человек в тени. Характеристика душности погоды. При расчете учитывается влияние влажности воздуха и скорости ветра на теплоощущения человека.
Tes - Эффективная температура на солнце - температура, которую ощущает человек, с поправкой на солнечный нагрев. Характеристика знойности погоды. Зависит от высоты солнца над горизонтом, облачности и скорости ветра. Ночью, в пасмурную погоду, а также при ветре 12 м/с и более поправка равна нулю.
P - Атмосферное давление - приведенное к уровню моря атмосферное давление.
Po - Атмосферное давление - измеренное на уровне метеостанции атмосферное давление.
Tmin - Минимальная температура - минимум температуры воздуха на высоте 2 м над землей.
Tmax - Максимальная температура - максимум температуры воздуха на высоте 2 м над землей.
R - Количество осадков - Количество выпавших осадков за 3 или 6 часов, мм.
SD - Снежный покров - Высота снежного покрова, см.